Voltar ao catálogo

CZ-4 DEB

AtivoSSO
NORAD 27806·DEBRIS·🇨🇳 China

Lançado Oct 14, 1999 de Taiyuan Satellite Launch Center

Loading…

Próximas Passagens (próximas 24 horas)

TLE

AtualizadoSource: Space-Track

Época: Sep 13, 2026, 08:03 UTC

1 27806U 99057MW  26256.33602069  .00000060  00000-0  37429-4 0  9998
2 27806  98.8857 290.5231 0108425 194.5379 165.2677 14.32108494295039

Acompanhe CZ-4 DEB em tempo real com AllMySat

Download on the App Store